• In Netherlands
  • List of Countries
  • For 7 days
  • Water Temperature
  • Satellite Maps
  • Weather Map
  • Weather Widgets
  • user-avatar
    Login

    Hourly Weather A'ali

    Today, 26 March, Sunday

    Time Temperature Precipitation Wind Pressure Humidity
    00:00 +24°C° 0.8 mm 3 mps 756 mmHg 83%
    01:00 +22°C° 0.1 mm 4 mps 756 mmHg 84%
    02:00 +22°C° 0.1 mm 5 mps 757 mmHg 85%
    03:00 +22°C° 0 mm 6 mps 757 mmHg 85%
    04:00 +21°C° 0.1 mm 7 mps 757 mmHg 85%
    05:00 +21°C° 0.1 mm 7 mps 758 mmHg 85%
    06:00 +21°C° 0.1 mm 8 mps 758 mmHg 84%
    07:00 +22°C° 0 mm 8 mps 759 mmHg 81%
    08:00 +22°C° 0 mm 7 mps 759 mmHg 77%
    09:00 +23°C° 0 mm 7 mps 760 mmHg 74%
    10:00 +23°C° 0 mm 7 mps 760 mmHg 71%
    11:00 +24°C° 0 mm 7 mps 760 mmHg 68%
    12:00 +24°C° 0 mm 7 mps 760 mmHg 64%
    13:00 +24°C° 0 mm 7 mps 760 mmHg 63%
    14:00 +24°C° 0 mm 7 mps 760 mmHg 61%
    15:00 +24°C° 0 mm 6 mps 760 mmHg 57%
    16:00 +24°C° 0 mm 6 mps 760 mmHg 59%
    17:00 +23°C° 0 mm 6 mps 760 mmHg 62%
    18:00 +23°C° 0 mm 6 mps 760 mmHg 64%
    19:00 +23°C° 0 mm 6 mps 760 mmHg 64%
    20:00 +22°C° 0 mm 6 mps 761 mmHg 64%
    21:00 +22°C° 0 mm 6 mps 761 mmHg 64%
    22:00 +22°C° 0 mm 6 mps 761 mmHg 63%
    23:00 +22°C° 0 mm 6 mps 761 mmHg 62%

    Tomorrow, 27 March, Monday

    Time Temperature Precipitation Wind Pressure Humidity
    00:00 +22°C° 0 mm 6 mps 761 mmHg 61%
    01:00 +22°C° 0 mm 5 mps 761 mmHg 62%
    02:00 +22°C° 0 mm 5 mps 761 mmHg 63%
    03:00 +22°C° 0 mm 4 mps 761 mmHg 63%
    04:00 +22°C° 0 mm 4 mps 761 mmHg 63%
    05:00 +22°C° 0 mm 4 mps 761 mmHg 64%
    06:00 +22°C° 0 mm 4 mps 761 mmHg 64%
    07:00 +22°C° 0 mm 3 mps 762 mmHg 60%
    08:00 +24°C° 0 mm 3 mps 762 mmHg 57%
    09:00 +25°C° 0 mm 2 mps 762 mmHg 53%
    10:00 +25°C° 0 mm 2 mps 762 mmHg 50%
    11:00 +26°C° 0 mm 3 mps 762 mmHg 46%
    12:00 +26°C° 0 mm 3 mps 762 mmHg 43%
    13:00 +27°C° 0 mm 4 mps 762 mmHg 40%
    14:00 +27°C° 0 mm 4 mps 761 mmHg 37%
    15:00 +27°C° 0 mm 5 mps 761 mmHg 34%
    16:00 +26°C° 0 mm 5 mps 761 mmHg 38%
    17:00 +26°C° 0 mm 6 mps 761 mmHg 42%
    18:00 +24°C° 0 mm 6 mps 761 mmHg 46%
    19:00 +23°C° 0 mm 5 mps 761 mmHg 50%
    20:00 +23°C° 0 mm 5 mps 762 mmHg 53%
    21:00 +23°C° 0 mm 4 mps 762 mmHg 57%
    22:00 +22°C° 0 mm 3 mps 762 mmHg 58%
    23:00 +22°C° 0 mm 3 mps 762 mmHg 58%

    Day after tomorrow, 28 March, Tuesday

    Time Temperature Precipitation Wind Pressure Humidity
    00:00 +22°C° 0 mm 3 mps 762 mmHg 59%
    01:00 +22°C° 0 mm 3 mps 761 mmHg 58%
    02:00 +22°C° 0 mm 3 mps 761 mmHg 58%
    03:00 +22°C° 0 mm 3 mps 761 mmHg 57%
    04:00 +21°C° 0 mm 3 mps 761 mmHg 56%
    05:00 +21°C° 0 mm 3 mps 761 mmHg 55%
    06:00 +21°C° 0 mm 3 mps 761 mmHg 54%
    07:00 +23°C° 0 mm 2 mps 761 mmHg 48%
    08:00 +24°C° 0 mm 2 mps 762 mmHg 43%
    09:00 +25°C° 0 mm 2 mps 762 mmHg 38%
    10:00 +26°C° 0 mm 2 mps 762 mmHg 35%
    11:00 +27°C° 0 mm 2 mps 761 mmHg 32%
    12:00 +27°C° 0 mm 2 mps 761 mmHg 29%
    13:00 +28°C° 0 mm 3 mps 760 mmHg 29%
    14:00 +28°C° 0 mm 3 mps 760 mmHg 28%
    15:00 +28°C° 0 mm 3 mps 759 mmHg 28%
    16:00 +27°C° 0 mm 3 mps 759 mmHg 31%
    17:00 +26°C° 0 mm 4 mps 760 mmHg 35%
    18:00 +25°C° 0 mm 4 mps 760 mmHg 38%
    19:00 +25°C° 0 mm 3 mps 760 mmHg 40%
    20:00 +25°C° 0 mm 3 mps 760 mmHg 41%
    21:00 +25°C° 0 mm 3 mps 760 mmHg 43%
    22:00 +25°C° 0 mm 3 mps 760 mmHg 44%
    23:00 +24°C° 0 mm 2 mps 760 mmHg 45%

    29 March, Wednesday

    Time Temperature Precipitation Wind Pressure Humidity
    00:00 +24°C° 0 mm 2 mps 759 mmHg 45%
    01:00 +24°C° 0 mm 2 mps 759 mmHg 45%
    02:00 +24°C° 0 mm 2 mps 759 mmHg 44%
    03:00 +24°C° 0 mm 2 mps 759 mmHg 43%
    04:00 +24°C° 0.2 mm 3 mps 759 mmHg 46%
    05:00 +24°C° 0.2 mm 3 mps 759 mmHg 49%
    06:00 +22°C° 0.2 mm 3 mps 760 mmHg 51%
    07:00 +24°C° 0.3 mm 3 mps 760 mmHg 49%
    08:00 +25°C° 0.3 mm 4 mps 760 mmHg 46%
    09:00 +25°C° 0.3 mm 4 mps 761 mmHg 44%
    10:00 +26°C° 0.1 mm 3 mps 761 mmHg 42%
    11:00 +27°C° 0.1 mm 3 mps 760 mmHg 40%
    12:00 +27°C° 0.1 mm 2 mps 760 mmHg 38%
    13:00 +27°C° 0 mm 2 mps 759 mmHg 38%
    14:00 +28°C° 0 mm 2 mps 759 mmHg 37%
    15:00 +28°C° 0 mm 3 mps 758 mmHg 36%
    16:00 +28°C° 0 mm 3 mps 758 mmHg 37%
    17:00 +27°C° 0 mm 3 mps 758 mmHg 39%
    18:00 +27°C° 0 mm 3 mps 758 mmHg 41%
    19:00 +27°C° 0 mm 3 mps 759 mmHg 41%
    20:00 +26°C° 0 mm 2 mps 759 mmHg 42%
    21:00 +26°C° 0 mm 2 mps 760 mmHg 43%
    22:00 +26°C° 0 mm 2 mps 759 mmHg 43%
    23:00 +26°C° 0 mm 3 mps 759 mmHg 44%

    30 March, Thursday

    Time Temperature Precipitation Wind Pressure Humidity
    00:00 +26°C° 0 mm 3 mps 759 mmHg 45%
    01:00 +26°C° 0 mm 2 mps 759 mmHg 45%
    02:00 +26°C° 0 mm 2 mps 759 mmHg 45%
    03:00 +26°C° 0 mm 2 mps 758 mmHg 46%
    04:00 +26°C° 0 mm 2 mps 759 mmHg 46%
    05:00 +26°C° 0 mm 2 mps 759 mmHg 47%
    06:00 +25°C° 0 mm 2 mps 760 mmHg 48%
    07:00 +26°C° 0 mm 2 mps 760 mmHg 45%
    08:00 +27°C° 0 mm 2 mps 761 mmHg 43%
    09:00 +28°C° 0 mm 3 mps 761 mmHg 41%
    10:00 +28°C° 0 mm 3 mps 761 mmHg 40%
    11:00 +29°C° 0 mm 2 mps 760 mmHg 39%
    12:00 +29°C° 0 mm 2 mps 760 mmHg 38%
    13:00 +30°C° 0 mm 3 mps 760 mmHg 38%
    14:00 +30°C° 0 mm 3 mps 759 mmHg 38%
    15:00 +30°C° 0 mm 3 mps 759 mmHg 37%
    16:00 +29°C° 0 mm 4 mps 759 mmHg 40%
    17:00 +28°C° 0 mm 4 mps 759 mmHg 42%
    18:00 +27°C° 0 mm 4 mps 759 mmHg 44%
    19:00 +27°C° 0 mm 4 mps 760 mmHg 45%
    20:00 +27°C° 0 mm 4 mps 760 mmHg 45%
    21:00 +27°C° 0 mm 4 mps 760 mmHg 46%
    22:00 +27°C° 0 mm 3 mps 760 mmHg 47%
    23:00 +27°C° 0 mm 3 mps 760 mmHg 47%

    31 March, Friday

    Time Temperature Precipitation Wind Pressure Humidity
    00:00 +26°C° 0 mm 3 mps 759 mmHg 48%
    01:00 +26°C° 0 mm 4 mps 759 mmHg 49%
    02:00 +26°C° 0 mm 5 mps 759 mmHg 51%
    03:00 +26°C° 0 mm 5 mps 759 mmHg 52%
    04:00 +26°C° 0 mm 5 mps 759 mmHg 54%
    05:00 +26°C° 0 mm 5 mps 759 mmHg 56%
    06:00 +25°C° 0 mm 4 mps 760 mmHg 59%
    07:00 +26°C° 0 mm 4 mps 760 mmHg 55%
    08:00 +27°C° 0 mm 4 mps 760 mmHg 51%
    09:00 +28°C° 0 mm 4 mps 760 mmHg 47%
    10:00 +29°C° 0 mm 4 mps 760 mmHg 44%
    11:00 +29°C° 0 mm 4 mps 760 mmHg 42%
    12:00 +30°C° 0 mm 4 mps 760 mmHg 39%
    13:00 +30°C° 0 mm 4 mps 759 mmHg 39%
    14:00 +30°C° 0 mm 4 mps 759 mmHg 39%
    15:00 +30°C° 0 mm 4 mps 758 mmHg 38%
    16:00 +29°C° 0 mm 3 mps 758 mmHg 40%
    17:00 +29°C° 0 mm 2 mps 758 mmHg 42%
    18:00 +28°C° 0 mm 2 mps 758 mmHg 44%
    19:00 +28°C° 0 mm 2 mps 759 mmHg 44%
    20:00 +28°C° 0 mm 2 mps 759 mmHg 44%
    21:00 +28°C° 0 mm 2 mps 759 mmHg 44%
    22:00 +28°C° 0 mm 2 mps 759 mmHg 44%
    23:00 +28°C° 0 mm 2 mps 758 mmHg 44%
    Show more